STARLINK-30561, 58032

Orbit data source: Space-Track

STARLINK-30561, 58032 is a payload satellite owned by SpaceX/Seattle (US) in LEO that was launched on Mon, 09 Oct 2023 UTC via an FALCON 9 launch vehicle from the Air Force Western Test Range (AFWTR). Payload-class satellites include a variety of spacecraft equipped with specific instruments for various scientific and technological missions. These include communications satellites like Starlink; space stations such as the ISS; scientific satellites like the Hubble; Earth observation satellites from companies like Planet Labs, Umbra, and HawkEye 360; GPS; miniature CubeSats for education and research; and military/defense satellites.

Loading next visibility...
Identifier
58032, 2023-156E
Orbit
LEO
Country
Flag of USUS
Related business
Manufacturer
SpaceX/Seattle
Mission
Operational Commercial Communications
Bus & Motor
STARLINK V2M, Unknown motor
Mass
730 kg wet, ~700 kg dry
Launch date (UTC)
2023-10-09 (2 years ago)
Launch vehicle
FALCON 9
Launch site
Air Force Western Test Range (AFWTR)
Object type
Payload
Rocket body
Debris
Shape & HBR
Box + 2 Pan, 17.7 m
Radar Cross Section
33.884 m², Large (>1 m²)

Expand to show TLE details & history
Last TLE update: 1 day ago

TLE from 1 day ago
0 STARLINK-30561
1 58032U 23156E   25348.59253952 -.00001395  00000-0 -35024-4 0  9995
2 58032  53.1604 113.7177 0001098  89.3101 270.8026 15.30179745123289
Epoch: 2025-12-14T14:13Z
TLE epoch observation values (Epoch: 2025-12-14T14:13:15.414Z)
Latitude
0.00001°
Longitude
176.90024°
Altitude
476.165 km
Speed
7.629 km/s
True Right ascension
07h 34m 52s
True Declination
0° 00' 00"
Sunlit
Object was in full shadow at epoch
Visualization orbit readout
Latitude
Unknown
Longitude
Unknown
Altitude
Unknown
Speed
Unknown
Apparent Right ascension
Unknown
Apparent Declination
Unknown
Sunlit
N/A
Visualization observer readout
Local Sidereal Time
13:23:41
Azimuth
Unknown
Elevation
Unknown
Doppler factor
Unknown
Orbital elements
Apogee altitude
476.284 km
Perigee altitude
474.779 km
Semi-major axis
6,853.669 km
Eccentricity
0.00011
Inclination
53.1604°
RAAN
113.7177°
Arg. of periapsis
89.3101°
True anomaly
270.79002°
Mean anomaly
270.8026°
Eccentric anomaly
270.79631°
Mean motion
3.82524 °/min
Orbital period
94.11 mins
BSTAR
-0.000035024
Loading maneuver chart data...
Computing Atmospheric mass density...
Loading historical data...
Loading historical data...
Loading historical data...
Loading historical data...
Loading historical data...
Loading historical data...
Loading historical data...

Documentation

Showing up to 5 results
|